681  
ASUS46 KSEW 180510  
RWRWA  
 
WASHINGTON REGIONAL WEATHER ROUNDUP  
NATIONAL WEATHER SERVICE SEATTLE WA  
1000 PM PDT SUN JUN 17 2018  
 
NOTE:"FAIR" INDICATES FEW OR NO CLOUDS BELOW 12,000 FEET WITH NO  
SIGNIFICANT WEATHER AND/OR S TO VISIBILITY
.  
 
WAZ507-509-555>559-180600-  
SEATTLE, TACOMA, EVERETT, AND VICINITY  
 
CITY SKY/WX TMP DP RH WIND PRES REMARKS
 
EVERETT CLEAR 70 48 45 NW5 29.89R  
BOEING FIELD CLEAR 76 46 34 CALM 29.86R  
RENTON CLEAR 72 55 55 NW3 29.86R  
SEATAC AIRPORT PTCLDY 78 44 29 N7 29.89R  
JBLM-MCCHORD PTCLDY 68 53 58 CALM 29.88R  
PUYALLUP FAIR 68 57 68 CALM 29.89R  
BREMERTON PTCLDY 66 51 58 CALM 29.89R  
JBLM-FT LEWIS CLEAR 73 52 46 CALM 29.87R  
TACOMA NARROWS PTCLDY 77 42 28 NE3 29.87R  

 
 
WAZ001-503-506-510-514-515-180600-  
NORTH INTERIOR  
 
CITY SKY/WX TMP DP RH WIND PRES REMARKS
 
BELLINGHAM PTCLDY 61 53 75 CALM 29.85R  
FRIDAY HARBOR CLEAR 60 50 69 CALM 29.86R  
EASTSOUND CLEAR 64 52 63 S5 29.84R  
PORT ANGELES CLEAR 68 47 46 W7 29.88S  
EDIZ HOOK FAIR 63 46 54 W9 29.87R  
PORT TOWNSEND FAIR 64 54 68 SW5 29.86R  
NAS WHIDBEY PTCLDY 64 49 57 CALM 29.90R  
ARLINGTON CLEAR 67 51 56 NW7 29.86R  
BURLINGTON CLEAR 63 54 72 CALM 29.86R  

 
 
WAZ020-022-039-040-504-511-512-180600-  
SOUTHWEST INTERIOR  
 
CITY SKY/WX TMP DP RH WIND PRES REMARKS
 
SHELTON MOCLDY 75 54 47 W3 29.86R  
OLYMPIA MOCLDY 70 49 47 CALM 29.87R  
CHEHALIS FAIR 72 55 56 CALM 29.87R  
KELSO PTCLDY 71 58 63 SE8 29.89R  
VANCOUVER PTCLDY 68 58 70 E7 29.90R  
SCAPPOOSE, OR CLEAR 64 58 80 NE3 29.90R  
PORTLAND, OR PTCLDY 68 59 73 S8 29.91R  

 
 
WAZ021-516-517-180600-  
WASHINGTON COAST  
 
CITY SKY/WX TMP DP RH WIND PRES REMARKS
 
FORKS CLEAR 62 47 57 CALM 29.88R  
HOQUIAM CLEAR 62 59 90 SW9 29.89R  
ASTORIA, OR CLEAR 60 58 92 SW7 29.91R  

 
 
WAZ019-023-024-040-567>569-180600-  
CASCADE MOUNTAINS AND COLUMBIA GORGE  
 
CITY SKY/WX TMP DP RH WIND PRES REMARKS
 
STAMPEDE PASS PTCLDY 58 45 62 S5 30.03R  
TROUTDALE, OR MOCLDY 67 62 84 NW3 29.89R  
HOOD RIVER, OR MOCLDY 73 48 40 NW5 29.89R  
THE DALLES, OR MOCLDY 76 50 40 NW17 29.83R  

 
 
WAZ026-027-041>044-520-521-180600-  
EAST SLOPES  
 
CITY SKY/WX TMP DP RH WIND PRES REMARKS
 
OMAK MOCLDY 76 44 32 S7 29.89R  
WENATCHEE MOCLDY 71 48 43 E10 29.89R  
ELLENSBURG MOCLDY 67 49 52 NE7 29.92R  
YAKIMA PTCLDY 71 50 47 CALM 29.88R  
SUNNYSIDE ARPT CLOUDY 63 54 70 NE3 29.86R  
YAKIMA TC NOT AVBL  

 
 
WAZ028-034-035-180600-  
COLUMBIA BASIN  
 
CITY SKY/WX TMP DP RH WIND PRES REMARKS
 
EPHRATA MOCLDY 73 46 38 CALM 29.89R  
MOSES LAKE PTCLDY 74 44 34 CALM 29.89R  
PASCO CLOUDY 72 53 51 NE6 29.84R  
RICHLAND ARPT CLOUDY 72 55 54 NW3 29.84R  
HERMISTON, OR CLOUDY 75 49 39 N3 29.83R  

 
 
WAZ036>038-180600-  
NORTHEAST WASHINGTON  
 
CITY SKY/WX TMP DP RH WIND PRES REMARKS
 
SPOKANE GEIGER CLOUDY 71 41 33 NE9 29.93R  
SPOKANE FELTS CLOUDY 70 42 36 NE3 29.92R  
FAIRCHILD AFB NOT AVBL  
COEURDALENE,ID CLOUDY 67 44 43 NE6 29.95R  
DEER PARK MOCLDY 67 42 40 N7 29.95R  

 
 
WAZ029>033-180600-  
SOUTHEAST WASHINGTON  
 
CITY SKY/WX TMP DP RH WIND PRES REMARKS
 
PULLMAN CLOUDY 63 47 55 N9 29.91R  
LEWISTON, ID CLOUDY 68 53 58 CALM 29.84S  
WALLA WALLA CLOUDY 66 54 65 E6 29.84R  
PENDLETON, OR CLOUDY 65 52 62 CALM 29.85R  

 
 
 
CLICK HERE TO GO TO PREVIOUS BULLETINS.

The Nexlab WA Page Main Text Page